Total_Precipitation_Accumulation
0.41 0.51 0.59 0.65 0.69 0.66 0.76 0.84 0.85 0.77 0.84 0.92 0.88 0.88 0.93 0.94 0.88 0.75 0.62 0.56 0.47 0.38 0.35 0.34 0.35 0.36 0.40 0.44 0.47 0.51 0.58 0.70 0.84 0.98 1.17 1.39 1.63 1.86
0.54 0.59 0.61 0.67 0.76 0.69 0.75 0.82 0.84 0.89 0.92 0.86 0.78 0.79 0.76 0.65 0.62 0.57 0.53 0.57 0.47 0.38 0.32 0.31 0.31 0.32 0.34 0.36 0.36 0.37 0.39 0.41 0.45 0.49 0.59 0.76 0.97 1.26
0.69 0.72 0.75 0.77 0.81 0.79 0.85 0.86 0.81 0.89 0.88 0.75 0.81 0.87 0.77 0.59 0.48 0.46 0.47 0.50 0.47 0.44 0.38 0.34 0.31 0.28 0.28 0.30 0.32 0.34 0.33 0.33 0.35 0.35 0.35 0.39 0.44 0.56
0.77 0.99 1.01 1.01 0.93 0.84 0.92 0.91 0.87 1.01 0.96 0.85 0.94 0.96 0.91 0.73 0.58 0.49 0.42 0.42 0.45 0.45 0.40 0.39 0.36 0.30 0.26 0.26 0.27 0.27 0.26 0.25 0.24 0.23 0.22 0.22 0.23 0.25
0.79 0.92 1.04 1.16 1.05 0.95 0.93 0.93 0.96 1.05 1.03 0.93 0.97 1.11 1.14 0.95 0.70 0.49 0.38 0.38 0.40 0.45 0.41 0.36 0.36 0.35 0.31 0.27 0.24 0.24 0.23 0.21 0.21 0.19 0.17 0.17 0.17 0.16
0.72 0.67 0.77 1.03 1.14 1.06 0.95 0.90 0.94 0.99 0.99 1.01 1.06 1.20 1.25 1.19 0.93 0.64 0.48 0.38 0.34 0.37 0.42 0.38 0.35 0.34 0.33 0.29 0.26 0.25 0.25 0.23 0.21 0.20 0.19 0.18 0.15 0.14
0.41 0.41 0.46 0.65 0.92 1.09 1.03 0.93 0.92 0.90 0.91 1.00 1.08 1.18 1.20 1.23 1.07 0.82 0.62 0.51 0.41 0.38 0.41 0.39 0.36 0.31 0.29 0.29 0.27 0.23 0.21 0.21 0.19 0.19 0.18 0.17 0.15 0.14
0.27 0.31 0.31 0.32 0.43 0.66 0.87 0.98 1.02 0.96 0.89 0.94 1.08 1.13 1.13 1.12 1.10 0.96 0.75 0.58 0.48 0.44 0.45 0.45 0.46 0.41 0.32 0.26 0.26 0.23 0.20 0.18 0.18 0.16 0.15 0.15 0.14 0.13
0.26 0.29 0.23 0.20 0.28 0.37 0.50 0.64 0.78 0.84 0.85 0.91 0.99 1.09 1.16 1.24 1.22 1.06 0.86 0.72 0.59 0.52 0.51 0.49 0.49 0.49 0.46 0.38 0.36 0.29 0.24 0.21 0.18 0.17 0.17 0.15 0.13 0.13
0.27 0.30 0.29 0.27 0.29 0.35 0.42 0.44 0.50 0.57 0.61 0.67 0.79 0.96 1.15 1.31 1.40 1.30 1.15 0.93 0.80 0.72 0.65 0.54 0.48 0.46 0.46 0.46 0.45 0.38 0.31 0.26 0.22 0.18 0.18 0.18 0.15 0.14
0.28 0.30 0.32 0.32 0.28 0.23 0.32 0.36 0.38 0.43 0.47 0.55 0.63 0.81 1.09 1.29 1.36 1.39 1.26 1.05 0.86 0.74 0.66 0.58 0.51 0.48 0.48 0.42 0.40 0.40 0.35 0.32 0.29 0.23 0.19 0.20 0.22 0.20
0.41 0.42 0.35 0.32 0.29 0.20 0.26 0.33 0.34 0.37 0.43 0.46 0.53 0.60 0.74 1.02 1.25 1.15 1.06 0.98 0.84 0.69 0.53 0.50 0.52 0.51 0.46 0.37 0.32 0.31 0.29 0.29 0.32 0.31 0.27 0.22 0.24 0.20
0.52 0.53 0.51 0.35 0.23 0.19 0.22 0.30 0.29 0.35 0.47 0.53 0.56 0.62 0.72 0.85 1.03 1.06 0.97 0.87 0.81 0.66 0.52 0.45 0.46 0.47 0.41 0.33 0.28 0.27 0.26 0.23 0.22 0.26 0.31 0.29 0.23 0.20
0.66 0.69 0.69 0.50 0.33 0.25 0.23 0.25 0.24 0.26 0.41 0.52 0.59 0.62 0.65 0.74 0.86 0.98 0.98 0.94 0.84 0.77 0.69 0.62 0.47 0.43 0.37 0.29 0.26 0.24 0.24 0.24 0.23 0.21 0.24 0.35 0.32 0.28
0.66 0.75 0.70 0.58 0.49 0.39 0.32 0.28 0.27 0.27 0.36 0.46 0.52 0.56 0.57 0.63 0.85 1.08 1.19 1.17 1.09 0.92 0.83 0.73 0.60 0.48 0.43 0.35 0.28 0.24 0.22 0.23 0.23 0.25 0.24 0.26 0.28 0.26
0.62 0.65 0.65 0.66 0.65 0.61 0.49 0.40 0.32 0.34 0.38 0.43 0.53 0.64 0.73 0.81 0.90 1.04 1.18 1.19 1.16 1.03 0.85 0.76 0.64 0.56 0.48 0.38 0.32 0.28 0.22 0.19 0.20 0.24 0.27 0.26 0.28 0.29
0.64 0.73 0.75 0.81 0.85 0.84 0.77 0.66 0.58 0.53 0.48 0.49 0.61 0.73 0.78 0.83 0.87 0.96 1.06 1.06 0.95 0.88 0.79 0.69 0.67 0.61 0.56 0.47 0.37 0.31 0.27 0.21 0.20 0.22 0.27 0.30 0.29 0.29
0.51 0.68 0.80 0.89 0.96 0.96 0.96 0.88 0.78 0.69 0.61 0.60 0.66 0.75 0.79 0.80 0.81 0.91 0.99 0.97 0.85 0.78 0.77 0.63 0.55 0.57 0.55 0.51 0.42 0.34 0.29 0.24 0.21 0.23 0.26 0.29 0.30 0.27
0.39 0.53 0.68 0.80 0.92 0.97 0.98 0.91 0.84 0.77 0.72 0.71 0.74 0.76 0.79 0.80 0.80 0.82 0.90 0.93 0.86 0.79 0.78 0.72 0.55 0.44 0.43 0.38 0.32 0.30 0.29 0.23 0.22 0.23 0.24 0.24 0.24 0.23
0.32 0.42 0.55 0.68 0.82 0.94 0.99 0.94 0.90 0.86 0.77 0.73 0.79 0.80 0.80 0.80 0.78 0.75 0.79 0.84 0.83 0.79 0.76 0.69 0.59 0.41 0.32 0.30 0.25 0.24 0.26 0.27 0.22 0.23 0.23 0.24 0.27 0.29
0.36 0.40 0.45 0.56 0.72 0.87 0.96 0.99 0.98 0.90 0.79 0.75 0.77 0.80 0.78 0.79 0.78 0.73 0.75 0.83 0.84 0.77 0.65 0.53 0.45 0.52 0.48 0.44 0.39 0.31 0.27 0.28 0.31 0.26 0.24 0.25 0.26 0.26
0.41 0.42 0.43 0.49 0.64 0.81 0.90 0.94 0.98 0.91 0.84 0.78 0.75 0.78 0.77 0.76 0.75 0.72 0.70 0.74 0.71 0.68 0.62 0.60 0.63 0.63 0.62 0.50 0.39 0.34 0.31 0.29 0.31 0.39 0.35 0.27 0.21 0.19
0.48 0.45 0.45 0.49 0.59 0.72 0.80 0.84 0.89 0.88 0.82 0.78 0.75 0.75 0.77 0.74 0.78 0.77 0.69 0.69 0.69 0.72 0.79 0.77 0.75 0.68 0.61 0.53 0.44 0.39 0.37 0.33 0.28 0.28 0.28 0.26 0.21 0.21